N5PA-2 Weather Reports


time (UTC)temp
F
wind
direction
speed
knots
gust
knots
rain 1hr
in
rain 24hr
in
rain mn
in
humidity
%
barometer
mb
20260504190005 78 179 1.7 7.8 0.00 0.00 0.00 46 1014.4
20260504185005 78 204 2.6 6.1 0.00 0.00 0.00 45 1014.5
20260504184505 78 208 1.7 6.1 0.00 0.00 0.00 48 1014.6
20260504184005 77 230 1.7 6.1 0.00 0.00 0.00 47 1014.6
20260504183005 77 211 2.6 7.0 0.00 0.00 0.00 45 1014.6
20260504182504 77 209 2.6 6.1 0.00 0.00 0.00 44 1014.7
20260504181505 77 193 1.7 6.1 0.00 0.00 0.00 49 1014.7
20260504181005 77 214 1.7 6.1 0.00 0.00 0.00 50 1014.9
20260504180505 76 222 2.6 7.8 0.00 0.00 0.00 47 1015.0
20260504180005 76 197 1.7 7.8 0.00 0.00 0.00 49 1015.0
20260504175505 76 219 2.6 8.7 0.00 0.00 0.00 49 1015.0
20260504175005 75 228 3.5 8.7 0.00 0.00 0.00 49 1015.1
20260504174505 76 212 3.5 9.6 0.00 0.00 0.00 46 1015.2
20260504174005 76 198 2.6 9.6 0.00 0.00 0.00 51 1015.2
20260504173505 76 210 1.7 6.1 0.00 0.00 0.00 48 1015.3
20260504173005 76 219 1.7 7.8 0.00 0.00 0.00 51 1015.4
20260504172505 75 202 1.7 7.8 0.00 0.00 0.00 49 1015.5
20260504172005 75 209 1.7 7.0 0.00 0.00 0.00 50 1015.5
20260504171004 74 221 2.6 7.8 0.00 0.00 0.00 54 1015.7
20260504170505 74 190 2.6 7.8 0.00 0.00 0.00 52 1015.7
20260504141004 60 186 0.0 2.6 0.00 0.00 0.00 85 1016.7
20260504140505 60 186 0.0 2.6 0.00 0.00 0.00 85 1016.7
20260504130504 52 0 0.0 0.0 0.00 0.00 0.00 83 1016.6
20260504110503 46 0 0.0 0.0 0.00 0.00 0.00 85 1015.9
20260504100506 47 0 0.0 0.0 0.00 0.00 0.00 85 1015.9
20260504082005 49 0 0.0 0.0 0.00 0.00 0.00 85 1015.9
20260504081005 49 0 0.0 0.0 0.00 0.00 0.00 85 1016.0
20260504080505 49 0 0.0 0.0 0.00 0.00 0.00 85 1016.2
20260504050504 53 0 0.0 0.0 0.00 0.00 0.00 85 1017.2
20260504050006 53 0 0.0 0.0 0.00 0.00 0.00 85 1017.2
20260504045504 53 0 0.0 0.0 0.00 0.00 0.00 85 1017.2
20260504045004 53 0 0.0 0.0 0.00 0.00 0.00 85 1017.2
20260504044504 53 0 0.0 0.0 0.00 0.00 0.00 85 1017.3
20260504044005 53 0 0.0 0.0 0.00 0.00 0.00 85 1017.3
20260504043004 53 0 0.0 0.0 0.00 0.00 0.00 85 1017.4
20260504042504 53 0 0.0 0.0 0.00 0.00 0.00 85 1017.5
20260504042004 54 0 0.0 0.0 0.00 0.00 0.00 85 1017.5
20260504041504 54 0 0.0 0.0 0.00 0.00 0.00 85 1017.6
20260504040504 54 0 0.0 0.0 0.00 0.00 0.00 85 1017.5
20260504040004 54 0 0.0 0.0 0.00 0.00 0.00 85 1017.6
20260504035504 54 0 0.0 0.0 0.00 0.00 0.00 85 1017.5
20260504035004 54 0 0.0 0.0 0.00 0.00 0.00 85 1017.5
20260504034504 55 0 0.0 0.0 0.00 0.00 0.00 85 1017.5
20260504034004 55 0 0.0 0.0 0.00 0.00 0.00 85 1017.5
20260504033504 55 0 0.0 0.0 0.00 0.00 0.00 85 1017.5
20260504033004 55 0 0.0 0.0 0.00 0.00 0.00 85 1017.5
20260504032004 56 0 0.0 0.0 0.00 0.00 0.00 85 1017.6
20260504031004 56 0 0.0 0.0 0.00 0.00 0.00 85 1017.4
20260504030504 56 0 0.0 0.0 0.00 0.00 0.00 85 1017.4
20260504030004 56 0 0.0 0.0 0.00 0.00 0.00 85 1017.4
20260504025504 56 0 0.0 0.0 0.00 0.00 0.00 85 1017.5
20260504025005 56 0 0.0 0.0 0.00 0.00 0.00 85 1017.4
20260504024504 57 0 0.0 0.0 0.00 0.00 0.00 85 1017.4
20260504024004 57 0 0.0 0.0 0.00 0.00 0.00 85 1017.4
20260504023504 57 0 0.0 0.0 0.00 0.00 0.00 85 1017.3
20260504021504 58 0 0.0 0.0 0.00 0.00 0.00 85 1017.1
20260504021004 58 0 0.0 0.0 0.00 0.00 0.00 85 1017.1
20260504020504 58 0 0.0 0.0 0.00 0.00 0.00 85 1017.0
20260504020004 59 0 0.0 0.0 0.00 0.00 0.00 85 1016.9
20260504015504 59 0 0.0 0.0 0.00 0.00 0.00 84 1016.9
20260504015005 59 0 0.0 0.0 0.00 0.00 0.00 84 1016.8
20260504014505 60 0 0.0 0.0 0.00 0.00 0.00 84 1016.8
20260504014005 60 0 0.0 0.0 0.00 0.00 0.00 84 1016.7
20260504013505 60 0 0.0 0.0 0.00 0.00 0.00 84 1016.7
20260504013004 61 78 0.0 0.9 0.00 0.00 0.00 83 1016.7
20260504012505 61 77 0.0 1.7 0.00 0.00 0.00 83 1016.6
20260504012005 61 77 0.9 1.7 0.00 0.00 0.00 83 1016.5
20260504011004 61 77 0.0 0.9 0.00 0.00 0.00 82 1016.4
20260504010505 62 77 0.9 1.7 0.00 0.00 0.00 80 1016.4
20260504010005 62 78 0.0 1.7 0.00 0.00 0.00 79 1016.4
20260504005505 63 0 0.0 0.0 0.00 0.00 0.00 80 1016.4
20260504005005 64 269 0.0 0.9 0.00 0.00 0.00 79 1016.4
20260504003505 65 0 0.0 0.0 0.00 0.00 0.00 75 1016.3
20260504003004 65 0 0.0 0.0 0.00 0.00 0.00 73 1016.4
20260504002505 65 0 0.0 0.0 0.00 0.00 0.00 70 1016.4
20260504002005 66 0 0.0 0.0 0.00 0.00 0.00 68 1016.4
20260504001505 66 246 0.0 0.9 0.00 0.00 0.00 68 1016.4
20260504001005 67 246 0.0 0.9 0.00 0.00 0.00 72 1016.4
20260504000005 68 246 0.0 0.9 0.00 0.00 0.00 68 1016.5
20260503235005 69 0 0.0 0.0 0.00 0.00 0.00 62 1016.4
20260503234005 70 0 0.0 0.0 0.00 0.00 0.00 59 1016.5
20260503233505 70 74 0.0 0.9 0.00 0.00 0.00 58 1016.5
20260503232504 71 74 0.0 0.9 0.00 0.00 0.00 56 1016.7
20260503232005 71 74 0.0 0.9 0.00 0.00 0.00 52 1016.7
20260503231505 72 54 0.0 1.7 0.00 0.00 0.00 54 1016.6
20260503231005 72 46 0.0 1.7 0.00 0.00 0.00 53 1016.6
20260503230505 72 46 0.0 1.7 0.00 0.00 0.00 55 1016.7
20260503230004 73 34 0.0 1.7 0.00 0.00 0.00 57 1016.8
20260503225504 73 33 0.0 0.9 0.00 0.00 0.00 52 1016.8
20260503225005 74 36 0.0 1.7 0.00 0.00 0.00 53 1016.8
20260503224505 74 40 0.0 1.7 0.00 0.00 0.00 47 1016.8
20260503224005 74 37 0.0 1.7 0.00 0.00 0.00 50 1016.9
20260503223005 75 72 0.0 1.7 0.00 0.00 0.00 50 1016.9
20260503222505 75 98 0.0 1.7 0.00 0.00 0.00 48 1016.9
20260503222005 75 94 0.0 1.7 0.00 0.00 0.00 45 1017.0
20260503221504 76 123 0.0 1.7 0.00 0.00 0.00 48 1016.9
20260503221004 76 116 0.0 1.7 0.00 0.00 0.00 48 1016.9
20260503220505 76 68 0.0 1.7 0.00 0.00 0.00 49 1016.9
20260503220005 76 79 0.0 0.9 0.00 0.00 0.00 48 1017.0
20260503215505 77 32 0.0 1.7 0.00 0.00 0.00 47 1017.0
20260503215005 77 29 0.9 2.6 0.00 0.00 0.00 47 1017.1
20260503214504 77 335 0.9 2.6 0.00 0.00 0.00 47 1017.1
20260503214004 77 219 0.9 2.6 0.00 0.00 0.00 44 1017.1
20260503213005 77 58 0.9 2.6 0.00 0.00 0.00 44 1017.3
20260503212504 77 46 0.9 1.7 0.00 0.00 0.00 42 1017.3
20260503212004 77 46 0.9 2.6 0.00 0.00 0.00 44 1017.4
20260503211504 77 36 0.9 2.6 0.00 0.00 0.00 40 1017.5
20260503211005 78 18 0.9 2.6 0.00 0.00 0.00 43 1017.6
20260503210505 78 50 0.9 2.6 0.00 0.00 0.00 45 1017.7
20260503210005 78 65 0.9 2.6 0.00 0.00 0.00 46 1017.8
20260503205504 78 88 0.9 4.3 0.00 0.00 0.00 42 1017.8
20260503205004 78 179 0.9 4.3 0.00 0.00 0.00 45 1017.9
20260503204505 78 193 1.7 4.3 0.00 0.00 0.00 44 1018.0
20260503204005 78 208 1.7 4.3 0.00 0.00 0.00 40 1018.0
20260503203504 78 237 0.9 2.6 0.00 0.00 0.00 42 1018.1
20260503203004 78 321 0.9 1.7 0.00 0.00 0.00 45 1018.2
20260503202505 78 164 0.9 2.6 0.00 0.00 0.00 40 1018.3
20260503202005 78 198 0.9 2.6 0.00 0.00 0.00 41 1018.4
20260503201504 78 226 0.9 3.5 0.00 0.00 0.00 37 1018.5
20260503200504 80 288 0.9 3.5 0.00 0.00 0.00 42 1018.7
20260503200004 79 284 0.9 3.5 0.00 0.00 0.00 41 1018.7
20260503195005 79 6 0.9 2.6 0.00 0.00 0.00 41 1018.8
20260503194504 78 322 0.9 2.6 0.00 0.00 0.00 40 1018.8
20260503194004 78 3 0.9 3.5 0.00 0.00 0.00 44 1019.0
20260503193504 78 167 0.9 4.3 0.00 0.00 0.00 46 1018.9
20260503193004 78 207 0.9 4.3 0.00 0.00 0.00 40 1018.9
20260503192504 78 243 0.9 2.6 0.00 0.00 0.00 47 1019.2
20260503192004 78 246 0.9 3.5 0.00 0.00 0.00 43 1019.2
20260503191504 78 287 0.9 3.5 0.00 0.00 0.00 40 1019.2
20260503191005 78 250 0.9 2.6 0.00 0.00 0.00 43 1019.3
20260503190504 77 142 1.7 3.5 0.00 0.00 0.00 46 1019.3